This is the latest recevied weather packets stored in our database for station/object KO4DYK. If no packets are shown the sender has not sent any weather packets the latest 10 day(s).
| Time | Temp. | Humidity | Pressure | Rain* | Wind** | Luminosity | Snow |
|---|---|---|---|---|---|---|---|
| 1777923451 | 26.67° C | 47% | 1016 hPa | 0 mm | - | 691 W/m² | - |
| 1777923149 | 26.11° C | 44% | 1016 hPa | 0 mm | - | 694 W/m² | - |
| 1777922847 | 26.67° C | 45% | 1016 hPa | 0 mm | - | 724 W/m² | - |
| 1777922545 | 26.67° C | 44% | 1016.1 hPa | 0 mm | - | 757 W/m² | - |
| 1777922244 | 26.11° C | 46% | 1016.1 hPa | 0 mm | - | 736 W/m² | - |
| 1777921940 | 26.11° C | 46% | 1016.1 hPa | 0 mm | - | 721 W/m² | - |
| 1777921635 | 26.11° C | 47% | 1016.3 hPa | 0 mm | - | 747 W/m² | - |
| 1777921332 | 26.67° C | 46% | 1016.2 hPa | 0 mm | - | 748 W/m² | - |
| 1777921029 | 26.67° C | 45% | 1016.3 hPa | 0 mm | - | 619 W/m² | - |
| 1777920725 | 26.67° C | 49% | 1016.3 hPa | 0 mm | - | 772 W/m² | - |
| 1777920421 | 26.11° C | 47% | 1016.4 hPa | 0 mm | - | 767 W/m² | - |
| 1777920116 | 26.11° C | 47% | 1016.5 hPa | 0 mm | - | 754 W/m² | - |
| 1777919813 | 25.56° C | 48% | 1016.5 hPa | 0 mm | - | 764 W/m² | - |
| 1777919511 | 26.11° C | 47% | 1016.6 hPa | 0 mm | - | 629 W/m² | - |
| 1777919209 | 26.11° C | 48% | 1016.6 hPa | 0 mm | - | 552 W/m² | - |
| 1777918906 | 26.11° C | 47% | 1016.5 hPa | 0 mm | - | 626 W/m² | - |
| 1777918603 | 26.67° C | 46% | 1016.7 hPa | 0 mm | - | 633 W/m² | - |
| 1777918301 | 26.11° C | 47% | 1016.8 hPa | 0 mm | - | 731 W/m² | - |
| 1777918000 | 26.11° C | 49% | 1016.7 hPa | 0 mm | - | 691 W/m² | - |
| 1777917698 | 26.11° C | 48% | 1016.9 hPa | 0 mm | - | 646 W/m² | - |
| 1777917395 | 26.11° C | 49% | 1016.9 hPa | 0 mm | - | 536 W/m² | - |
| 1777917091 | 25° C | 50% | 1016.9 hPa | 0 mm | - | 815 W/m² | - |
| 1777916790 | 25.56° C | 50% | 1016.8 hPa | 0 mm | - | 755 W/m² | - |
| 1777916486 | 25.56° C | 49% | 1017.1 hPa | 0 mm | - | 766 W/m² | - |
| 1777916183 | 25.56° C | 52% | 1017.4 hPa | 0 mm | - | 505 W/m² | - |
* Rain latest hour (hover to see other rain measurements)
** Current wind speed in m/s (hover to see current wind gust speed)